Regional Weather Roundup
Issued by NWS Goodland, KS

Home | Current Version | Previous Version | Graphics & Text | Print | Product List | Glossary On
Versions: 1 2 3 4 5 6 7 8 9 10 11 12 13 14 15 16 17 18 19 20 21 22 23 24 25 26 27 28 29 30 31 32 33 34 35 36 37 38 39 40 41 42 43 44 45 46 47 48 49 50
000
ASUS43 KGLD 142208
RWRGLD

GOODLAND FORECAST AREA HOURLY WEATHER ROUNDUP
NATIONAL WEATHER SERVICE GOODLAND KS
300 PM MST THU DEC 14 2017

...OFFICIAL OBSERVATIONS...

CITY           SKY/WX    TMP DP  RH WIND       PRES   REMARKS
GOODLAND KS    MOSUNNY   35  25  66 N17G28    30.16R
HILL CITY KS   PTSUNNY   43  28  55 N26G35    30.15R
IMPERIAL NEB   CLOUDY    36  28  73 N15       30.18R
MCCOOK NEB     CLOUDY    40  22  48 N20       30.15R
AKRON CO       CLOUDY    33  18  53 N22G36    30.18S
BURLINGTON CO  CLOUDY    39  18  42 NW18G28   30.17R
LIMON CO       CLOUDY    29  23  78 N13       30.21R WCI  19
$$

...UNOFFICIAL OBSERVATIONS...

CITY           SKY/WX    TMP DP  RH WIND       PRES   REMARKS
COLBY KS       MOSUNNY   37  30  75 N15G21    30.17S
LENORA KS        N/A     40  32  73 N12G18      N/A
NORTON KS      CLOUDY    39  19  45 NW21G26   30.13
SHARON SPRINGS   N/A     40  29  64 NE16G25     N/A
KIT CARSON CO    N/A     36  22  57 MISG        N/A
YUMA CO        CLOUDY    34  18  51 N24G32    30.19R
$$



USA.gov is the U.S. government's official web portal to all federal, state and local government web resources and services.